Time,TemperatureF,DewpointF,PressureIn,WindDirection,WindDirectionDegrees,WindSpeedMPH,WindSpeedGustMPH,Humidity,HourlyPrecipIn,Conditions,Clouds,dailyrainin,SolarRadiationWatts/m^2,SoftwareType,DateUTC
2013-08-02 00:01:00,62.0,61.0,-100.00,NW,319,3.0,5.0,96,0.00,,,0.27,0.000000,,2013-08-02 04:01:00,
2013-08-02 00:02:00,62.0,61.0,-100.00,NW,319,3.0,5.0,96,0.00,,,0.27,0.000000,,2013-08-02 04:02:00,
2013-08-02 00:12:00,62.0,61.0,-100.00,NW,319,3.0,5.0,96,0.00,,,0.27,0.000000,,2013-08-02 04:12:00,
2013-08-02 00:43:00,61.0,60.0,-100.00,NW,320,3.0,5.0,98,0.00,,,0.27,0.000000,,2013-08-02 04:43:00,
2013-08-02 00:53:00,61.0,60.0,-100.00,NW,320,3.0,5.0,98,0.00,,,0.27,0.000000,,2013-08-02 04:53:00,
2013-08-02 01:02:00,61.0,60.0,-100.00,NW,320,3.0,5.0,98,0.00,,,0.27,0.000000,,2013-08-02 05:02:00,
2013-08-02 01:12:00,61.0,60.0,-100.00,NW,320,3.0,5.0,98,0.00,,,0.27,0.000000,,2013-08-02 05:12:00,
2013-08-02 01:43:00,61.0,60.0,-100.00,NNW,327,3.0,7.0,96,0.00,,,0.27,0.000000,,2013-08-02 05:43:00,
2013-08-02 01:53:00,61.0,60.0,-100.00,NNW,327,3.0,7.0,96,0.00,,,0.27,0.000000,,2013-08-02 05:53:00,
2013-08-02 02:02:00,61.0,60.0,-100.00,NNW,327,3.0,7.0,96,0.00,,,0.27,0.000000,,2013-08-02 06:02:00,
2013-08-02 02:12:00,61.0,60.0,-100.00,NNW,327,3.0,7.0,96,0.00,,,0.27,0.000000,,2013-08-02 06:12:00,
2013-08-02 02:43:00,60.0,59.0,-100.00,NW,323,4.0,8.0,97,0.00,,,0.27,0.000000,,2013-08-02 06:43:00,
2013-08-02 02:52:00,60.0,59.0,-100.00,NW,323,4.0,8.0,97,0.00,,,0.27,0.000000,,2013-08-02 06:52:00,
2013-08-02 03:02:00,60.0,59.0,-100.00,NW,323,4.0,8.0,97,0.00,,,0.27,0.000000,,2013-08-02 07:02:00,
2013-08-02 03:12:00,60.0,59.0,-100.00,NW,323,4.0,8.0,97,0.00,,,0.27,0.000000,,2013-08-02 07:12:00,
2013-08-02 03:44:00,60.0,59.0,-100.00,NW,325,4.0,7.0,98,0.00,,,0.26,0.000000,,2013-08-02 07:44:00,
2013-08-02 03:53:00,60.0,59.0,-100.00,NW,325,4.0,7.0,98,0.00,,,0.26,0.000000,,2013-08-02 07:53:00,
2013-08-02 04:02:00,60.0,59.0,-100.00,NW,325,4.0,7.0,98,0.00,,,0.26,0.000000,,2013-08-02 08:02:00,
2013-08-02 04:12:00,60.0,59.0,-100.00,NW,325,4.0,7.0,98,0.00,,,0.26,0.000000,,2013-08-02 08:12:00,
2013-08-02 04:43:00,59.0,58.0,-100.00,NNW,328,3.0,6.0,97,0.00,,,0.26,0.000000,,2013-08-02 08:43:00,
2013-08-02 04:54:00,59.0,58.0,-100.00,NNW,328,3.0,6.0,97,0.00,,,0.26,0.000000,,2013-08-02 08:54:00,
2013-08-02 05:02:00,59.0,58.0,-100.00,NNW,328,3.0,6.0,97,0.00,,,0.26,0.000000,,2013-08-02 09:02:00,
2013-08-02 05:12:00,59.0,58.0,-100.00,NNW,328,3.0,6.0,97,0.00,,,0.26,0.000000,,2013-08-02 09:12:00,
2013-08-02 05:44:00,58.0,57.0,-100.00,NNW,331,2.0,5.0,95,0.00,,,0.26,0.000000,,2013-08-02 09:44:00,
2013-08-02 05:53:00,58.0,57.0,-100.00,NNW,331,2.0,5.0,95,0.00,,,0.26,0.000000,,2013-08-02 09:53:00,
2013-08-02 06:03:00,58.0,57.0,-100.00,NNW,331,2.0,5.0,95,0.00,,,0.26,0.000000,,2013-08-02 10:03:00,
2013-08-02 06:12:00,58.0,57.0,-100.00,NNW,331,2.0,5.0,95,0.00,,,0.26,0.000000,,2013-08-02 10:12:00,
2013-08-02 06:44:00,58.0,57.0,-100.00,WSW,255,2.0,5.0,95,0.00,,,0.26,0.000000,,2013-08-02 10:44:00,
2013-08-02 06:52:00,58.0,57.0,-100.00,WSW,255,2.0,5.0,95,0.00,,,0.26,0.000000,,2013-08-02 10:52:00,
2013-08-02 07:02:00,58.0,57.0,-100.00,WSW,255,2.0,5.0,95,0.00,,,0.26,0.000000,,2013-08-02 11:02:00,
2013-08-02 07:12:00,58.0,57.0,-100.00,WSW,255,2.0,5.0,95,0.00,,,0.26,0.000000,,2013-08-02 11:12:00,
2013-08-02 07:43:00,59.0,58.0,-100.00,NW,319,3.0,7.0,95,0.00,,,0.26,12.000000,,2013-08-02 11:43:00,
2013-08-02 07:52:00,59.0,58.0,-100.00,NW,319,3.0,7.0,95,0.00,,,0.26,12.000000,,2013-08-02 11:52:00,
2013-08-02 08:02:00,59.0,58.0,-100.00,NW,319,3.0,7.0,95,0.00,,,0.26,12.000000,,2013-08-02 12:02:00,
2013-08-02 08:12:00,59.0,58.0,-100.00,NW,319,3.0,7.0,95,0.00,,,0.26,12.000000,,2013-08-02 12:12:00,
2013-08-02 08:43:00,60.0,58.0,-100.00,NW,323,4.0,9.0,93,0.00,,,0.26,54.000000,,2013-08-02 12:43:00,
2013-08-02 08:52:00,60.0,58.0,-100.00,NW,323,4.0,9.0,93,0.00,,,0.26,54.000000,,2013-08-02 12:52:00,
2013-08-02 09:03:00,60.0,58.0,-100.00,NW,323,4.0,9.0,93,0.00,,,0.26,54.000000,,2013-08-02 13:03:00,
2013-08-02 09:12:00,60.0,58.0,-100.00,NW,323,4.0,9.0,93,0.00,,,0.26,54.000000,,2013-08-02 13:12:00,
2013-08-02 09:43:00,66.0,62.0,-100.00,NW,317,3.0,6.0,86,0.00,,,0.26,282.000000,,2013-08-02 13:43:00,
2013-08-02 09:52:00,66.0,62.0,-100.00,NW,317,3.0,6.0,86,0.00,,,0.26,282.000000,,2013-08-02 13:52:00,
2013-08-02 10:02:00,66.0,62.0,-100.00,NW,317,3.0,6.0,86,0.00,,,0.26,282.000000,,2013-08-02 14:02:00,
2013-08-02 10:12:00,66.0,62.0,-100.00,NW,317,3.0,6.0,86,0.00,,,0.26,282.000000,,2013-08-02 14:12:00,
2013-08-02 10:43:00,70.0,64.0,-100.00,NW,318,4.0,9.0,81,0.00,,,0.26,453.000000,,2013-08-02 14:43:00,
2013-08-02 10:53:00,70.0,64.0,-100.00,NW,318,4.0,9.0,81,0.00,,,0.26,453.000000,,2013-08-02 14:53:00,
2013-08-02 11:03:00,70.0,64.0,-100.00,NW,318,4.0,9.0,81,0.00,,,0.26,453.000000,,2013-08-02 15:03:00,
2013-08-02 11:12:00,70.0,64.0,-100.00,NW,318,4.0,9.0,81,0.00,,,0.26,453.000000,,2013-08-02 15:12:00,
2013-08-02 11:43:00,69.0,63.0,-100.00,NW,318,3.0,9.0,80,0.00,,,0.26,368.000000,,2013-08-02 15:43:00,
2013-08-02 11:53:00,69.0,63.0,-100.00,NW,318,3.0,9.0,80,0.00,,,0.26,368.000000,,2013-08-02 15:53:00,
2013-08-02 12:02:00,69.0,63.0,-100.00,NW,318,3.0,9.0,80,0.00,,,0.26,368.000000,,2013-08-02 16:02:00,
2013-08-02 12:12:00,69.0,63.0,-100.00,NW,318,3.0,9.0,80,0.00,,,0.26,368.000000,,2013-08-02 16:12:00,
2013-08-02 12:43:00,71.0,59.0,-100.00,NW,324,3.0,8.0,66,0.00,,,-99.99,483.000000,,2013-08-02 16:43:00,
2013-08-02 12:53:00,71.0,59.0,-100.00,NW,324,3.0,8.0,66,0.00,,,-99.99,483.000000,,2013-08-02 16:53:00,
2013-08-02 13:02:00,71.0,59.0,-100.00,NW,324,3.0,8.0,66,0.00,,,-99.99,483.000000,,2013-08-02 17:02:00,
2013-08-02 13:12:00,71.0,59.0,-100.00,NW,324,3.0,8.0,66,0.00,,,-99.99,483.000000,,2013-08-02 17:12:00,
2013-08-02 13:43:00,73.0,58.0,-100.00,NW,310,4.0,9.0,60,0.00,,,0.26,571.000000,,2013-08-02 17:43:00,
2013-08-02 13:52:00,73.0,58.0,-100.00,NW,310,4.0,9.0,60,0.00,,,0.26,571.000000,,2013-08-02 17:52:00,
2013-08-02 14:02:00,73.0,58.0,-100.00,NW,310,4.0,9.0,60,0.00,,,0.26,571.000000,,2013-08-02 18:02:00,
2013-08-02 14:12:00,73.0,58.0,-100.00,NW,310,4.0,9.0,60,0.00,,,0.26,571.000000,,2013-08-02 18:12:00,
2013-08-02 14:43:00,75.0,59.0,-100.00,WNW,294,4.0,9.0,58,0.00,,,0.26,595.000000,,2013-08-02 18:43:00,
2013-08-02 14:52:00,75.0,59.0,-100.00,WNW,294,4.0,9.0,58,0.00,,,0.26,595.000000,,2013-08-02 18:52:00,
2013-08-02 15:02:00,75.0,59.0,-100.00,WNW,294,4.0,9.0,58,0.00,,,0.26,595.000000,,2013-08-02 19:02:00,
2013-08-02 15:12:00,75.0,59.0,-100.00,WNW,294,4.0,9.0,58,0.00,,,0.26,595.000000,,2013-08-02 19:12:00,
2013-08-02 15:43:00,74.0,57.0,-100.00,NW,321,3.0,10.0,55,0.00,,,0.26,536.000000,,2013-08-02 19:43:00,
2013-08-02 15:52:00,74.0,57.0,-100.00,NW,321,3.0,10.0,55,0.00,,,0.26,536.000000,,2013-08-02 19:52:00,
2013-08-02 16:02:00,74.0,57.0,-100.00,NW,321,3.0,10.0,55,0.00,,,0.26,536.000000,,2013-08-02 20:02:00,
2013-08-02 16:12:00,74.0,57.0,-100.00,NW,321,3.0,10.0,55,0.00,,,0.26,536.000000,,2013-08-02 20:12:00,
2013-08-02 16:43:00,77.0,59.0,-100.00,NNW,344,4.0,10.0,53,0.00,,,0.26,603.000000,,2013-08-02 20:43:00,
2013-08-02 16:52:00,77.0,59.0,-100.00,NNW,344,4.0,10.0,53,0.00,,,0.26,603.000000,,2013-08-02 20:52:00,
2013-08-02 17:03:00,77.0,59.0,-100.00,NNW,344,4.0,10.0,53,0.00,,,0.26,603.000000,,2013-08-02 21:03:00,
2013-08-02 17:12:00,77.0,59.0,-100.00,NNW,344,4.0,10.0,53,0.00,,,0.26,603.000000,,2013-08-02 21:12:00,
2013-08-02 17:43:00,72.0,54.0,-100.00,NNW,332,4.0,9.0,53,0.00,,,0.26,404.000000,,2013-08-02 21:43:00,
2013-08-02 17:53:00,72.0,54.0,-100.00,NNW,332,4.0,9.0,53,0.00,,,0.26,404.000000,,2013-08-02 21:53:00,
2013-08-02 18:03:00,72.0,54.0,-100.00,NNW,332,4.0,9.0,53,0.00,,,0.26,404.000000,,2013-08-02 22:03:00,
2013-08-02 18:12:00,72.0,54.0,-100.00,NNW,332,4.0,9.0,53,0.00,,,0.26,404.000000,,2013-08-02 22:12:00,
2013-08-02 18:43:00,72.0,55.0,-100.00,NNW,334,4.0,7.0,56,0.00,,,0.01,379.000000,,2013-08-02 22:43:00,
2013-08-02 18:52:00,72.0,55.0,-100.00,NNW,334,4.0,7.0,56,0.00,,,0.01,379.000000,,2013-08-02 22:52:00,
2013-08-02 19:02:00,72.0,55.0,-100.00,NNW,334,4.0,7.0,56,0.00,,,0.01,379.000000,,2013-08-02 23:02:00,
2013-08-02 19:12:00,72.0,55.0,-100.00,NNW,334,4.0,7.0,56,0.00,,,0.01,379.000000,,2013-08-02 23:12:00,
2013-08-02 19:43:00,68.0,55.0,-100.00,NW,318,4.0,9.0,64,0.00,,,0.00,82.000000,,2013-08-02 23:43:00,
2013-08-02 19:53:00,68.0,55.0,-100.00,NW,318,4.0,9.0,64,0.00,,,0.00,82.000000,,2013-08-02 23:53:00,
2013-08-02 20:02:00,68.0,55.0,-100.00,NW,318,4.0,9.0,64,0.00,,,0.00,82.000000,,2013-08-03 00:02:00,
2013-08-02 20:12:00,68.0,55.0,-100.00,NW,318,4.0,9.0,64,0.00,,,0.00,82.000000,,2013-08-03 00:12:00,
2013-08-02 20:43:00,65.0,55.0,-100.00,NW,319,3.0,10.0,71,0.00,,,0.00,22.000000,,2013-08-03 00:43:00,
2013-08-02 20:52:00,65.0,55.0,-100.00,NW,319,3.0,10.0,71,0.00,,,0.00,22.000000,,2013-08-03 00:52:00,
2013-08-02 21:03:00,65.0,55.0,-100.00,NW,319,3.0,10.0,71,0.00,,,0.00,22.000000,,2013-08-03 01:03:00,
2013-08-02 21:12:00,65.0,55.0,-100.00,NW,319,3.0,10.0,71,0.00,,,0.00,22.000000,,2013-08-03 01:12:00,
2013-08-02 21:43:00,64.0,56.0,-100.00,NW,311,5.0,9.0,74,0.00,,,0.00,1.000000,,2013-08-03 01:43:00,
2013-08-02 21:53:00,64.0,56.0,-100.00,NW,311,5.0,9.0,74,0.00,,,0.00,1.000000,,2013-08-03 01:53:00,
2013-08-02 22:02:00,64.0,56.0,-100.00,NW,311,5.0,9.0,74,0.00,,,0.00,1.000000,,2013-08-03 02:02:00,
2013-08-02 22:12:00,64.0,56.0,-100.00,NW,311,5.0,9.0,74,0.00,,,0.00,1.000000,,2013-08-03 02:12:00,
2013-08-02 22:43:00,63.0,55.0,-100.00,NW,318,3.0,10.0,76,0.00,,,0.00,0.000000,,2013-08-03 02:43:00,
2013-08-02 22:53:00,63.0,55.0,-100.00,NW,318,3.0,10.0,76,0.00,,,0.00,0.000000,,2013-08-03 02:53:00,
2013-08-02 23:03:00,63.0,55.0,-100.00,NW,318,3.0,10.0,76,0.00,,,0.00,0.000000,,2013-08-03 03:03:00,
2013-08-02 23:12:00,63.0,55.0,-100.00,NW,318,3.0,10.0,76,0.00,,,0.00,0.000000,,2013-08-03 03:12:00,
2013-08-02 23:43:00,63.0,55.0,-100.00,NW,309,4.0,9.0,75,0.00,,,0.00,0.000000,,2013-08-03 03:43:00,
2013-08-02 23:53:00,63.0,55.0,-100.00,NW,309,4.0,9.0,75,0.00,,,0.00,0.000000,,2013-08-03 03:53:00,